ITY1415 LIRF-LICJ

Flight info

Callsign ITY1415
Flight time 0h 52m
Altitude 33000
Route ROTUN DCT GIANO
Aircraft A319/M-SDE3FGHIRWY/LB1

Departure

Time 2026-05-06 09:58
Airport Rome–Fiumicino Leonardo da Vinci International Airport (LIRF)

Arrival

Time 2026-05-06 10:50
Airport Falcone–Borsellino Airport (LICJ)
Time Latitude Longitude Altitude Speed Heading
2026-05-06 09:24 41.80286 12.26186 14 ft 0 kts 204°
2026-05-06 09:49 41.80295 12.26192 14 ft 3 kts 223°
2026-05-06 09:49 41.80307 12.26213 16 ft 3 kts 255°
2026-05-06 09:49 41.80308 12.26238 14 ft 3 kts 287°
2026-05-06 09:49 41.80305 12.26250 14 ft 0 kts 297°
2026-05-06 09:52 41.80305 12.26249 14 ft 1 kts 299°
2026-05-06 09:52 41.80316 12.26229 16 ft 4 kts 309°
2026-05-06 09:52 41.80340 12.26205 16 ft 5 kts 337°
2026-05-06 09:53 41.80374 12.26215 14 ft 6 kts 38°
2026-05-06 09:53 41.80393 12.26266 16 ft 7 kts 69°
2026-05-06 09:53 41.80415 12.26346 14 ft 11 kts 70°
2026-05-06 09:53 41.80445 12.26454 14 ft 14 kts 70°
2026-05-06 09:54 41.80481 12.26587 14 ft 17 kts 70°
2026-05-06 09:54 41.80523 12.26740 15 ft 18 kts 70°
2026-05-06 09:54 41.80565 12.26892 16 ft 17 kts 70°
2026-05-06 09:54 41.80628 12.27021 14 ft 17 kts 34°
2026-05-06 09:55 41.80742 12.27055 16 ft 17 kts
2026-05-06 09:55 41.80846 12.27025 15 ft 7 kts 340°
2026-05-06 09:55 41.80848 12.27024 15 ft 0 kts 340°
2026-05-06 09:56 41.80880 12.27009 14 ft 12 kts 340°
2026-05-06 09:57 41.80950 12.26942 13 ft 14 kts 286°
2026-05-06 09:57 41.80923 12.26794 13 ft 31 kts 250°
2026-05-06 09:57 41.80753 12.26182 18 ft 110 kts 250°
2026-05-06 09:57 41.80390 12.24935 93 ft 170 kts 244°
2026-05-06 09:58 41.80008 12.23436 1002 ft 165 kts 246°
2026-05-06 09:58 41.79597 12.21933 1735 ft 182 kts 244°
2026-05-06 09:58 41.78865 12.20511 2363 ft 189 kts 217°
2026-05-06 09:58 41.77877 12.19378 3195 ft 191 kts 217°
2026-05-06 09:59 41.76838 12.18233 3903 ft 193 kts 218°
2026-05-06 09:59 41.75744 12.17190 4606 ft 198 kts 206°
2026-05-06 09:59 41.74391 12.16791 5280 ft 207 kts 184°
2026-05-06 09:59 41.72894 12.16816 5752 ft 223 kts 181°
2026-05-06 10:00 41.71297 12.16916 6195 ft 238 kts 181°
2026-05-06 10:00 41.69628 12.17028 6764 ft 245 kts 181°
2026-05-06 10:00 41.67868 12.17125 7349 ft 262 kts 182°
2026-05-06 10:00 41.66018 12.17215 8124 ft 270 kts 182°
2026-05-06 10:01 41.64119 12.17302 8967 ft 276 kts 182°
2026-05-06 10:01 41.62189 12.17388 9849 ft 280 kts 182°
2026-05-06 10:01 41.60214 12.17477 10477 ft 292 kts 182°
2026-05-06 10:01 41.58124 12.17570 10906 ft 308 kts 182°
2026-05-06 10:02 41.55959 12.17628 11584 ft 314 kts 187°
2026-05-06 10:02 41.53802 12.17224 12385 ft 315 kts 193°
2026-05-06 10:02 41.51629 12.16715 13123 ft 320 kts 194°
2026-05-06 10:02 41.49434 12.16167 13914 ft 324 kts 194°
2026-05-06 10:03 41.47213 12.15605 14616 ft 327 kts 194°
2026-05-06 10:03 41.44965 12.15047 15330 ft 331 kts 194°
2026-05-06 10:03 41.42698 12.14495 16074 ft 333 kts 193°
2026-05-06 10:03 41.40407 12.13942 16798 ft 336 kts 193°
2026-05-06 10:04 41.38102 12.13384 17512 ft 339 kts 193°
2026-05-06 10:04 41.35772 12.12816 18235 ft 342 kts 193°
2026-05-06 10:04 41.33409 12.12347 18824 ft 348 kts 187°
2026-05-06 10:04 41.30975 12.12558 19488 ft 356 kts 173°
2026-05-06 10:05 41.28570 12.13434 20104 ft 361 kts 168°
2026-05-06 10:05 41.26166 12.14453 20671 ft 366 kts 167°
2026-05-06 10:05 41.23749 12.15530 21282 ft 369 kts 166°
2026-05-06 10:05 41.21304 12.16611 21849 ft 372 kts 167°
2026-05-06 10:06 41.18832 12.17673 22421 ft 375 kts 168°
2026-05-06 10:06 41.16341 12.18722 22975 ft 379 kts 168°
2026-05-06 10:06 41.13790 12.19789 22973 ft 389 kts 168°
2026-05-06 10:06 41.11248 12.20866 22988 ft 382 kts 168°
2026-05-06 10:07 41.08737 12.21939 23019 ft 381 kts 168°
2026-05-06 10:07 41.06222 12.23008 23036 ft 381 kts 168°
2026-05-06 10:07 41.03700 12.24075 23044 ft 380 kts 168°
2026-05-06 10:07 41.01185 12.25135 23047 ft 380 kts 168°
2026-05-06 10:08 40.98673 12.26194 23045 ft 380 kts 168°
2026-05-06 10:08 40.96160 12.27254 23041 ft 381 kts 168°
2026-05-06 10:08 40.93638 12.28319 23042 ft 381 kts 168°
2026-05-06 10:08 40.91109 12.29385 23069 ft 380 kts 168°
2026-05-06 10:09 40.88584 12.30330 23028 ft 377 kts 174°
2026-05-06 10:09 40.86014 12.30722 23046 ft 371 kts 181°
2026-05-06 10:09 40.83429 12.30931 23046 ft 373 kts 182°
2026-05-06 10:09 40.80845 12.31113 23048 ft 372 kts 182°
2026-05-06 10:10 40.78263 12.31287 23052 ft 373 kts 182°
2026-05-06 10:10 40.75683 12.31464 23052 ft 374 kts 182°
2026-05-06 10:10 40.73088 12.31653 23047 ft 373 kts 182°
2026-05-06 10:10 40.70498 12.31844 23043 ft 373 kts 182°
2026-05-06 10:11 40.67913 12.32034 23044 ft 374 kts 182°
2026-05-06 10:11 40.65324 12.32221 23041 ft 373 kts 182°
2026-05-06 10:11 40.62732 12.32406 23043 ft 374 kts 182°
2026-05-06 10:11 40.60137 12.32592 23042 ft 374 kts 182°
2026-05-06 10:12 40.57547 12.32778 23041 ft 374 kts 182°
2026-05-06 10:12 40.54957 12.32965 23039 ft 374 kts 182°
2026-05-06 10:12 40.52369 12.33151 23042 ft 374 kts 182°
2026-05-06 10:12 40.49776 12.33337 23039 ft 374 kts 182°
2026-05-06 10:13 40.47186 12.33523 23039 ft 373 kts 182°
2026-05-06 10:13 40.44594 12.33709 23039 ft 373 kts 182°
2026-05-06 10:13 40.42012 12.33894 23039 ft 373 kts 182°
2026-05-06 10:13 40.39429 12.34079 23038 ft 373 kts 182°
2026-05-06 10:14 40.36843 12.34264 23038 ft 372 kts 182°
2026-05-06 10:14 40.34263 12.34448 23044 ft 372 kts 182°
2026-05-06 10:14 40.31680 12.34632 23042 ft 372 kts 182°
2026-05-06 10:14 40.29102 12.34817 23037 ft 372 kts 182°
2026-05-06 10:15 40.26525 12.35000 23035 ft 371 kts 182°
2026-05-06 10:15 40.23952 12.35184 23038 ft 371 kts 182°
2026-05-06 10:15 40.21381 12.35367 23042 ft 371 kts 182°
2026-05-06 10:15 40.18810 12.35549 23040 ft 371 kts 182°
2026-05-06 10:16 40.16238 12.35732 23041 ft 371 kts 182°
2026-05-06 10:16 40.13657 12.35915 23043 ft 371 kts 182°
2026-05-06 10:16 40.11095 12.36097 23042 ft 371 kts 182°
2026-05-06 10:16 40.08521 12.36280 23039 ft 370 kts 182°
2026-05-06 10:17 40.05956 12.36462 23036 ft 370 kts 182°
2026-05-06 10:17 40.03395 12.36643 23041 ft 369 kts 182°
2026-05-06 10:17 40.00839 12.36824 23039 ft 369 kts 182°
2026-05-06 10:17 39.98275 12.37005 23036 ft 369 kts 182°
2026-05-06 10:18 39.95716 12.37185 23041 ft 370 kts 182°
2026-05-06 10:18 39.93147 12.37367 23042 ft 370 kts 182°
2026-05-06 10:18 39.90585 12.37548 23044 ft 370 kts 182°
2026-05-06 10:18 39.88025 12.37728 23042 ft 370 kts 182°
2026-05-06 10:19 39.85458 12.37909 23039 ft 370 kts 182°
2026-05-06 10:19 39.82890 12.38090 23039 ft 370 kts 182°
2026-05-06 10:19 39.80325 12.38270 23044 ft 370 kts 182°
2026-05-06 10:19 39.77758 12.38450 23041 ft 370 kts 182°
2026-05-06 10:20 39.75192 12.38626 23049 ft 370 kts 182°
2026-05-06 10:20 39.72624 12.38806 23055 ft 370 kts 181°
2026-05-06 10:20 39.70057 12.38989 23053 ft 371 kts 181°
2026-05-06 10:20 39.67482 12.39172 23043 ft 370 kts 181°
2026-05-06 10:21 39.64912 12.39353 23042 ft 371 kts 181°
2026-05-06 10:21 39.62345 12.39532 23040 ft 371 kts 181°
2026-05-06 10:21 39.59769 12.39711 23040 ft 371 kts 181°
2026-05-06 10:21 39.57204 12.39890 23042 ft 371 kts 181°
2026-05-06 10:22 39.54632 12.40069 23042 ft 371 kts 181°
2026-05-06 10:22 39.52055 12.40249 23031 ft 371 kts 181°
2026-05-06 10:22 39.49487 12.40429 23032 ft 371 kts 181°
2026-05-06 10:22 39.46914 12.40608 23036 ft 371 kts 181°
2026-05-06 10:23 39.44338 12.40787 23034 ft 371 kts 181°
2026-05-06 10:23 39.41768 12.40966 23029 ft 370 kts 181°
2026-05-06 10:23 39.39235 12.41145 23026 ft 361 kts 181°
2026-05-06 10:23 39.36751 12.41321 23020 ft 355 kts 181°
2026-05-06 10:24 39.34297 12.41490 23024 ft 354 kts 181°
2026-05-06 10:24 39.31845 12.41657 23021 ft 352 kts 181°
2026-05-06 10:24 39.29412 12.41823 23024 ft 350 kts 181°
2026-05-06 10:24 39.26982 12.41991 23023 ft 350 kts 181°
2026-05-06 10:25 39.24556 12.42159 23026 ft 350 kts 181°
2026-05-06 10:25 39.22134 12.42327 23024 ft 350 kts 181°
2026-05-06 10:25 39.19706 12.42495 23025 ft 350 kts 181°
2026-05-06 10:25 39.17279 12.42663 23036 ft 350 kts 181°
2026-05-06 10:26 39.14850 12.42830 23044 ft 351 kts 181°
2026-05-06 10:26 39.12420 12.42997 23035 ft 351 kts 181°
2026-05-06 10:26 39.09990 12.43165 23031 ft 350 kts 181°
2026-05-06 10:26 39.07561 12.43333 23030 ft 350 kts 181°
2026-05-06 10:27 39.05126 12.43500 23030 ft 351 kts 181°
2026-05-06 10:27 39.02696 12.43667 23031 ft 351 kts 181°
2026-05-06 10:27 39.00269 12.43834 23025 ft 351 kts 181°
2026-05-06 10:27 38.97833 12.44001 23021 ft 350 kts 181°
2026-05-06 10:28 38.95402 12.44168 23021 ft 351 kts 181°
2026-05-06 10:28 38.92967 12.44335 23016 ft 351 kts 181°
2026-05-06 10:28 38.90533 12.44572 22988 ft 355 kts 175°
2026-05-06 10:28 38.88175 12.45552 23024 ft 362 kts 158°
2026-05-06 10:29 38.86110 12.47482 23028 ft 374 kts 138°
2026-05-06 10:29 38.84596 12.50225 23053 ft 381 kts 123°
2026-05-06 10:29 38.83326 12.53226 23010 ft 385 kts 121°
2026-05-06 10:29 38.82121 12.56282 22720 ft 388 kts 120°
2026-05-06 10:30 38.80917 12.59354 22384 ft 385 kts 121°
2026-05-06 10:30 38.79689 12.62379 21977 ft 382 kts 121°
2026-05-06 10:30 38.78448 12.65348 21500 ft 375 kts 122°
2026-05-06 10:30 38.77221 12.68261 20948 ft 371 kts 122°
2026-05-06 10:31 38.76012 12.71153 20370 ft 368 kts 121°
2026-05-06 10:31 38.74820 12.74034 19803 ft 365 kts 121°
2026-05-06 10:31 38.73638 12.76897 19174 ft 364 kts 121°
2026-05-06 10:31 38.72458 12.79750 18570 ft 363 kts 121°
2026-05-06 10:32 38.71276 12.82592 17925 ft 361 kts 121°
2026-05-06 10:32 38.70099 12.85416 17251 ft 359 kts 121°
2026-05-06 10:32 38.68932 12.88215 16586 ft 355 kts 121°
2026-05-06 10:32 38.67780 12.90982 15928 ft 349 kts 121°
2026-05-06 10:33 38.66648 12.93697 15291 ft 344 kts 121°
2026-05-06 10:33 38.65536 12.96361 14663 ft 339 kts 121°
2026-05-06 10:33 38.64430 12.99007 14056 ft 336 kts 121°
2026-05-06 10:33 38.63330 13.01634 13406 ft 334 kts 122°
2026-05-06 10:34 38.62239 13.04236 12734 ft 331 kts 121°
2026-05-06 10:34 38.61158 13.06816 12067 ft 329 kts 121°
2026-05-06 10:34 38.60085 13.09376 11427 ft 326 kts 121°
2026-05-06 10:34 38.59024 13.11905 10790 ft 322 kts 121°
2026-05-06 10:35 38.57968 13.14416 10173 ft 319 kts 121°
2026-05-06 10:35 38.56927 13.16892 9540 ft 316 kts 121°
2026-05-06 10:35 38.55895 13.19343 8881 ft 312 kts 121°
2026-05-06 10:35 38.54632 13.21542 8216 ft 306 kts 137°
2026-05-06 10:36 38.52970 13.23135 8095 ft 295 kts 153°
2026-05-06 10:36 38.51130 13.24235 8045 ft 289 kts 159°
2026-05-06 10:36 38.49305 13.25233 8044 ft 283 kts 160°
2026-05-06 10:36 38.47438 13.25953 7971 ft 283 kts 178°
2026-05-06 10:37 38.45574 13.25492 7891 ft 273 kts 210°
2026-05-06 10:37 38.44260 13.23869 7795 ft 260 kts 241°
2026-05-06 10:37 38.43506 13.21849 7758 ft 248 kts 247°
2026-05-06 10:37 38.42857 13.19863 7613 ft 240 kts 240°
2026-05-06 10:38 38.41642 13.18489 7362 ft 238 kts 203°
2026-05-06 10:38 38.40019 13.18347 7175 ft 237 kts 170°
2026-05-06 10:38 38.38485 13.19084 7024 ft 237 kts 155°
2026-05-06 10:38 38.37046 13.20078 6880 ft 234 kts 154°
2026-05-06 10:39 38.35612 13.21025 6719 ft 232 kts 156°
2026-05-06 10:39 38.34261 13.22141 6451 ft 237 kts 134°
2026-05-06 10:39 38.33622 13.24046 6188 ft 240 kts 94°
2026-05-06 10:39 38.33903 13.26103 6021 ft 237 kts 71°
2026-05-06 10:40 38.34583 13.28025 5845 ft 237 kts 63°
2026-05-06 10:40 38.35345 13.29883 5683 ft 237 kts 63°
2026-05-06 10:40 38.36059 13.31769 5522 ft 236 kts 66°
2026-05-06 10:40 38.36711 13.33675 5349 ft 235 kts 68°
2026-05-06 10:41 38.37335 13.35591 5188 ft 234 kts 68°
2026-05-06 10:41 38.37957 13.37497 5027 ft 233 kts 68°
2026-05-06 10:41 38.38554 13.39414 4838 ft 233 kts 75°
2026-05-06 10:41 38.38473 13.41433 4540 ft 231 kts 115°
2026-05-06 10:42 38.37431 13.42902 4293 ft 225 kts 153°
2026-05-06 10:42 38.36019 13.43643 4161 ft 219 kts 164°
2026-05-06 10:42 38.34567 13.44144 3985 ft 215 kts 167°
2026-05-06 10:42 38.33137 13.44629 3795 ft 212 kts 165°
2026-05-06 10:43 38.31726 13.45158 3609 ft 214 kts 166°
2026-05-06 10:43 38.30275 13.45085 3522 ft 205 kts 203°
2026-05-06 10:43 38.29250 13.43964 3454 ft 194 kts 243°
2026-05-06 10:44 38.28237 13.40950 3636 ft 186 kts 244°
2026-05-06 10:44 38.27743 13.39529 3627 ft 172 kts 245°
2026-05-06 10:44 38.27296 13.38204 3656 ft 158 kts 245°
2026-05-06 10:44 38.26866 13.36917 3605 ft 153 kts 246°
2026-05-06 10:45 38.26466 13.35715 3629 ft 151 kts 245°
2026-05-06 10:45 38.26065 13.34511 3596 ft 146 kts 245°
2026-05-06 10:45 38.25672 13.33328 3673 ft 148 kts 245°
2026-05-06 10:45 38.25278 13.32145 3637 ft 143 kts 245°
2026-05-06 10:46 38.24891 13.30981 3634 ft 143 kts 245°
2026-05-06 10:46 38.24499 13.29803 3622 ft 145 kts 245°
2026-05-06 10:46 38.24108 13.28630 3631 ft 145 kts 245°
2026-05-06 10:46 38.23708 13.27431 3444 ft 150 kts 245°
2026-05-06 10:47 38.23315 13.26247 3196 ft 147 kts 245°
2026-05-06 10:47 38.22921 13.25055 2808 ft 146 kts 246°
2026-05-06 10:47 38.22532 13.23871 2338 ft 143 kts 246°
2026-05-06 10:47 38.22150 13.22694 1866 ft 144 kts 246°
2026-05-06 10:48 38.21762 13.21541 1526 ft 136 kts 245°
2026-05-06 10:48 38.21371 13.20401 1453 ft 150 kts 246°
2026-05-06 10:48 38.20976 13.19229 1247 ft 140 kts 246°
2026-05-06 10:48 38.20583 13.18059 1085 ft 148 kts 246°
2026-05-06 10:49 38.20189 13.16885 892 ft 143 kts 247°
2026-05-06 10:49 38.19791 13.15699 694 ft 147 kts 249°
2026-05-06 10:49 38.19398 13.14524 496 ft 144 kts 248°
2026-05-06 10:49 38.19005 13.13352 304 ft 147 kts 250°
2026-05-06 10:50 38.18614 13.12184 83 ft 138 kts 249°
2026-05-06 10:50 38.18317 13.11309 49 ft 48 kts 246°
2026-05-06 10:50 38.18243 13.11088 48 ft 19 kts 246°
2026-05-06 10:50 38.18189 13.10917 48 ft 21 kts 249°
2026-05-06 10:51 38.18168 13.10735 52 ft 21 kts 273°
2026-05-06 10:51 38.18175 13.10649 51 ft 0 kts 276°
2026-05-06 10:51 38.18175 13.10648 51 ft 1 kts 276°
2026-05-06 10:52 38.18180 13.10595 50 ft 10 kts 276°
2026-05-06 10:52 38.18186 13.10523 50 ft 0 kts 277°
2026-05-06 10:52 38.18187 13.10520 50 ft 2 kts 277°
2026-05-06 10:53 38.18200 13.10431 49 ft 16 kts 290°
2026-05-06 10:53 38.18268 13.10354 48 ft 12 kts 333°
2026-05-06 10:53 38.18349 13.10307 46 ft 14 kts 339°
2026-05-06 10:53 38.18442 13.10316 43 ft 13 kts 37°
2026-05-06 10:54 38.18487 13.10406 46 ft 11 kts 66°
2026-05-06 10:54 38.18519 13.10480 46 ft 8 kts 52°
2026-05-06 10:54 38.18521 13.10484 46 ft 0 kts 51°